This is the latest recevied weather packets stored in our database for station/object N3FYI-5. If no packets are shown the sender has not sent any weather packets the latest 10 day(s).
| Time | Temp. | Humidity | Pressure | Rain* | Wind** | Luminosity | Snow |
|---|---|---|---|---|---|---|---|
| 1777808594 | 0° C | 87% | 1025 hPa | 0 mm | - | - | - |
| 1777808113 | -0.56° C | 87% | 1024.9 hPa | 0 mm | - | - | - |
| 1777807633 | -0.56° C | 87% | 1024.8 hPa | 0 mm | - | - | - |
| 1777807152 | -1.11° C | 88% | 1024.8 hPa | 0 mm | - | - | - |
| 1777806673 | -1.11° C | 87% | 1024.7 hPa | 0 mm | - | - | - |
| 1777806194 | -1.11° C | 87% | 1024.7 hPa | 0 mm | - | - | - |
| 1777805713 | -1.11° C | 87% | 1024.6 hPa | 0 mm | - | - | - |
| 1777805232 | -1.67° C | 86% | 1024.5 hPa | 0 mm | - | - | - |
| 1777804752 | -1.67° C | 85% | 1024.3 hPa | 0 mm | - | - | - |
| 1777804273 | -1.67° C | 86% | 1024.4 hPa | 0 mm | - | - | - |
| 1777803796 | -1.67° C | 86% | 1024.3 hPa | 0 mm | - | - | - |
| 1777803315 | -1.67° C | 86% | 1024.3 hPa | 0 mm | - | - | - |
| 1777802833 | -1.67° C | 87% | 1024.2 hPa | 0 mm | - | - | - |
| 1777802360 | -1.67° C | 87% | 1024.1 hPa | 0 mm | - | - | - |
| 1777801873 | -1.67° C | 87% | 1023.9 hPa | 0 mm | - | - | - |
| 1777801396 | -1.67° C | 87% | 1023.9 hPa | 0 mm | - | - | - |
| 1777800912 | -1.67° C | 87% | 1023.9 hPa | 0 mm | - | - | - |
| 1777800432 | -1.11° C | 87% | 1024 hPa | 0 mm | - | - | - |
| 1777799952 | -1.11° C | 87% | 1024 hPa | 0 mm | - | - | - |
| 1777799472 | -1.11° C | 87% | 1023.9 hPa | 0 mm | - | - | - |
| 1777798992 | -0.56° C | 87% | 1024 hPa | 0 mm | - | - | - |
| 1777798512 | -0.56° C | 86% | 1023.8 hPa | 0 mm | - | - | - |
| 1777798032 | -0.56° C | 86% | 1023.8 hPa | 0 mm | - | - | - |
| 1777797552 | -0.56° C | 86% | 1023.9 hPa | 0 mm | - | - | - |
| 1777797072 | 0° C | 86% | 1023.9 hPa | 0 mm | - | - | - |
* Rain latest hour (hover to see other rain measurements)
** Current wind speed in m/s (hover to see current wind gust speed)